Weather observations for the past three days for
Fulton County Airport-Brown Field
Imperial (Metric)
Date Time (edt) Wind (mph) Vis. (mi.) Weather Sky Cond. Temperature (ºF) Relative Humidity Wind Chill (°F) Heat Index (°F) Pressure Precipitation (in)
Air Dwpt 6 hour altimeter (in) sea level (mb) 1 hr 3 hr 6 hr
Max. Min.
18 04:53 SE 5 10.00 Mostly Cloudy FEW047 BKN080 75.9 66 72% 77 30.13 1019.2
18 03:53 Vrbl 3 10.00 A Few Clouds FEW050 78.1 64.9 64% 80 30.13 1019.2
18 02:53 SE 8 10.00 Mostly Cloudy BKN048 80.1 66 62% 82 30.13 1019.2
18 01:53 SE 6 10.00 Fair CLR 80.1 68 90 80.1 67% 83 30.14 1019.4
18 00:53 Calm 10.00 Fair CLR 81 68 65% 84 30.14 1019.6
17 23:53 SE 6 10.00 Mostly Cloudy FEW065 BKN110 82.9 68 61% 86 30.14 1019.4
17 22:53 SE 8 10.00 Overcast BKN060 OVC110 84 66.9 57% 87 30.12 1018.8
17 21:53 E 9 10.00 A Few Clouds FEW070 86 66.9 53% 89 30.09 1017.8
17 19:53 Calm 10.00 A Few Clouds FEW060 90 64.9 93 90 44% 92 30.06 1016.9
17 18:53 E 9 G 17 10.00 Partly Cloudy SCT060 91 64.9 42% 93 30.06 1016.7
17 17:53 E 8 G 17 10.00 Fair CLR 91.9 64 40% 94 30.06 1016.6
17 16:53 SE 10 10.00 A Few Clouds FEW060 91.9 64 40% 94 30.08 1017.5
17 15:53 SE 8 G 23 10.00 A Few Clouds FEW055 91 64 41% 93 30.11 1018.4
17 14:53 E 9 10.00 A Few Clouds FEW060 91 62.1 38% 92 30.13 1019.0
17 13:53 E 13 G 21 10.00 Fair CLR 91 63 91 75.9 39% 92 30.15 1019.6
17 12:53 SE 12 G 20 10.00 A Few Clouds FEW120 88 63 43% 89 30.16 1020.1
17 11:53 Calm 0.00 Fair CLR 86 64 48% 87 30.17 1020.4
17 10:53 SE 10 G 17 10.00 Fair CLR 82.9 66 57% 85 30.16 1020.3
17 09:53 S 7 10.00 A Few Clouds FEW023 81 69.1 67% 84 30.17 1020.5
17 08:53 Vrbl 5 10.00 Fair CLR 78.1 69.1 74% 80 30.17 1020.6
17 07:53 E 7 10.00 Fair CLR 75.9 68 82 73.9 77% 77 30.16 1020.1
17 06:53 Vrbl 3 10.00 Fair CLR 75 66.9 76% 76 30.15 1019.7
17 05:53 E 3 10.00 Fair CLR 77 66.9 71% 79 30.12 1018.9
17 04:53 Vrbl 3 10.00 Fair CLR 78.1 66 67% 80 30.12 1018.5
17 03:53 SE 6 10.00 Fair CLR 79 66 65% 81 30.1 1018.1
17 02:53 S 6 10.00 Fair CLR 80.1 64.9 60% 82 30.12 1018.7
17 01:53 S 8 10.00 Fair CLR 82 64.9 91.9 82 56% 84 30.12 1018.6
17 00:53 SE 8 10.00 Mostly Cloudy BKN070 84 66 55% 86 30.12 1018.6
16 23:53 SE 5 10.00 Partly Cloudy SCT075 84 64.9 53% 86 30.11 1018.3
16 22:53 SE 3 10.00 A Few Clouds FEW070 86 64 48% 87 30.1 1017.9
16 21:53 SE 5 10.00 Fair CLR 87.1 64 46% 88 30.07 1017.1
16 20:53 SE 7 10.00 Partly Cloudy SCT075 89.1 64 43% 90 30.05 1016.4
16 19:53 Calm 10.00 Mostly Cloudy BKN070 91.9 63 97 91.9 38% 93 30.04 1016.1
16 18:53 SE 14 G 22 10.00 Fair CLR 93.9 63 36% 95 30.03 1015.7
16 17:53 SE 8 10.00 Fair CLR 93 64.9 40% 95 30.03 1015.7
16 16:53 SE 10 G 22 10.00 A Few Clouds FEW070 96.1 64 35% 98 30.02 1015.5
16 15:53 S 7 10.00 Fair CLR 96.1 64 35% 98 30.03 1015.8
16 14:53 SE 9 G 21 10.00 A Few Clouds FEW060 93.9 66 40% 97 30.05 1016.4
16 13:53 E 9 10.00 Partly Cloudy FEW065 SCT100 93 64 93.9 78.1 38% 95 30.08 1017.2
16 12:53 SE 3 10.00 A Few Clouds FEW060 91.9 66 43% 95 30.09 1017.7
16 11:53 Calm 10.00 Fair CLR 90 66.9 47% 93 30.1 1018.1
16 10:53 S 7 10.00 Fair CLR 88 66 48% 90 30.1 1018.1
16 09:53 Calm 10.00 Fair CLR 84.9 68 57% 88 30.1 1018.1
16 08:53 Vrbl 3 10.00 Fair CLR 82 70 67% 86 30.09 1017.8
16 07:53 E 3 10.00 Fair CLR 79 69.1 79 72 72% 82 30.08 1017.3
16 06:53 SE 6 10.00 A Few Clouds FEW120 75.9 68 77% 77 30.06 1016.9
16 05:53 Calm 10.00 A Few Clouds FEW120 73.9 69.1 85% 30.04 1016.2
16 04:53 Calm 10.00 Fair CLR 72 68 87% 30.02 1015.3
16 03:53 Calm 10.00 A Few Clouds FEW070 75.9 68 77% 77 30.01 1015.2
16 02:53 SW 3 10.00 Fair CLR 77 68 74% 79 30.01 1015.1
16 01:53 SW 3 10.00 Fair CLR 78.1 68 89.1 78.1 71% 80 30.02 1015.4
16 00:53 Vrbl 6 10.00 A Few Clouds FEW070 80.1 68 67% 83 30.03 1015.6
15 23:53 SW 6 10.00 Overcast SCT070 BKN095 OVC120 82.9 66.9 59% 86 30.02 1015.2
15 22:53 S 5 10.00 Mostly Cloudy BKN070 BKN080 84.9 66.9 55% 88 30 1014.7
15 21:53 SW 5 10.00 Mostly Cloudy BKN075 BKN090 87.1 66.9 51% 90 29.99 1014.1
15 20:53 NE 3 10.00 Partly Cloudy SCT080 87.1 70 57% 92 29.96 1013.3
15 19:53 N 3 10.00 Fair CLR 89.1 73 97 89.1 59% 97 29.94 1012.8
15 18:53 NW 6 10.00 Light Rain FEW055 OVC110 91 66.9 45% 94 29.94 1012.8
15 17:53 E 5 10.00 Overcast OVC070 95 63 35% 96 29.95 1013.0
15 16:53 W 7 10.00 Fair CLR 95 64.9 37% 98 29.95 1013.2
15 15:53 Calm 10.00 Fair CLR 93 64 38% 95 29.97 1013.6
15 14:53 NE 6 10.00 Mostly Cloudy BKN065 91.9 64 40% 94 29.98 1014.1
15 13:53 NW 3 10.00 Mostly Cloudy BKN060 91.9 64.9 95 75 41% 94 30 1014.6
15 12:53 Calm 10.00 Partly Cloudy SCT060 91.9 64.9 41% 94 30.01 1015.0
15 11:53 Vrbl 6 10.00 Fair CLR 91 64.9 42% 93 30.01 1015.2
15 10:53 Vrbl 3 10.00 Fair CLR 89.1 66 47% 92 30.02 1015.3
15 09:53 Calm 10.00 Fair CLR 87.1 69.1 55% 91 30.02 1015.2
15 08:53 Calm 10.00 Fair CLR 80.1 68 67% 83 30.01 1015.0
15 07:53 Calm 9.00 Fair CLR 73.9 68 73.9 69.1 82% 30 1014.7
15 06:53 Calm 8.00 Fair CLR 70 66 87% 29.98 1014.1
15 05:53 Calm 10.00 Fair CLR 70 66 87% 29.97 1013.8
Date Time (edt) Wind (mph) Vis. (mi.) Weather Sky Cond. Air Dwpt Max. Min. Relative Humidity Wind Chill (°F) Heat Index (°F) altimeter (in) sea level (mb) 1 hr 3 hr 6 hr
6 hour
Temperature (ºF) Pressure Precipitation (in)